Location: Unspecified
(48.2082°N, 0.0000°E)
Time: 12:17:25
(UTC+00:00)

Altair - Pass Details

Date: 21 June 2019
Orbit: 1501 x 1683 km, 47.2° (Epoch: 22 July)

Event Time Altitude Azimuth Distance (km) Brightness Sun altitude
Rises 01:28:14 0° 287° (WNW) 4,841 10.1 -15.8°
Reaches altitude 10° 01:31:22 10° 284° (WNW) 3,876 9.5 -15.6°
Maximum altitude 01:41:03 59° 209° (SSW) 1,881 7.6 -15.0°
Drops below altitude 10° 01:50:55 10° 133° (SE) 3,940 9.5 -14.3°
Sets 01:54:08 0° 130° (SE) 4,926 10.0 -14.0°
